Flag for Argentina Weather past 2 weeks in Tucumán, Tucumán, Argentina

Now
97 °F

Passing clouds.


Feels Like: 96 °F
Forecast: N/A
Wind: No wind

Location: Tucuman Aerodrome

Current Time: Oct 24, 2014 at 5:56:59 PM

Latest Report: Oct 24, 2014 at 5:00 PM


Visibility: N/A

Pressure: 29.86 "Hg

Humidity: 27%

Dew point: 57 °F

Location of TucumánLocation

Historic Weather in Tucumán — Graph

°F

Tucumán temperature yesterday

Maximum temperature yesterday: 91 °F (at 12:00 PM)
Minimum temperature yesterday: 72 °F (at 11:00 PM)
Average temperature yesterday: 81 °F

Past Weeks' High & Low Weather Summary

 TemperatureHumidityPressure
High102 °F (Oct 9, 4:00 PM)94% (Oct 19, 1:00 AM)30.21 "Hg (Oct 19, 1:00 AM)
Low50 °F (Oct 12, 6:00 AM)27% (Oct 22, 5:00 PM)29.50 "Hg (Oct 18, 4:00 PM)
Average75 °F61%29.93 "Hg
* Reported Oct 9 4:00 PM — Oct 24 4:00 PM, Tucumán, Weather by CustomWeather, © 2014

Note: Actual official high and low records may vary slightly from our data, if they occured in-between our weather recording intervals... More about our weather records

Advertising

Tucumán weather history for previous 24 hours

 ConditionsComfort  
Time TempWeatherWind HumidityBarometerVisibility
4:00 PM
Oct 24
99 °FPassing clouds.7 mph27%29.86 "HgN/A
3:00 PM97 °FPassing clouds.9 mph28%29.89 "HgN/A
2:00 PM95 °FPassing clouds.7 mph32%29.92 "HgN/A
1:00 PM91 °FPassing clouds.No wind36%29.95 "HgN/A
12:00 PM90 °FPassing clouds.2 mph38%29.98 "HgN/A
11:00 AM88 °FSunny.6 mph40%30.01 "Hg10 mi
10:00 AM82 °FSunny.3 mph51%30.01 "Hg10 mi
9:00 AM77 °FSunny.3 mph61%30.01 "Hg10 mi
8:00 AM72 °FSunny.3 mph69%29.98 "Hg10 mi
7:00 AM66 °FSunny.5 mph83%29.95 "Hg10 mi
6:00 AM68 °FSunny.9 mph78%29.92 "Hg10 mi
5:00 AM70 °FClear.9 mph78%29.92 "Hg10 mi
4:00 AM72 °FClear.9 mph73%29.92 "Hg10 mi
3:00 AM72 °FClear.10 mph73%29.92 "Hg10 mi
2:00 AM72 °FClear.10 mph73%29.92 "Hg10 mi
1:00 AM73 °FClear.9 mph74%29.95 "Hg10 mi
12:00 AM73 °FClear.9 mph74%29.95 "Hg10 mi
11:00 PM
Oct 23
72 °FClear.9 mph83%29.95 "Hg10 mi
10:00 PM73 °FClear.5 mph74%29.95 "Hg10 mi
9:00 PM75 °FClear.5 mph69%29.92 "Hg10 mi
8:00 PM79 °FPassing clouds.7 mph61%29.92 "HgN/A
7:00 PM79 °FPassing clouds.9 mph70%29.92 "HgN/A
6:00 PM81 °FScattered clouds.No wind66%29.89 "HgN/A
5:00 PM75 °FScattered clouds.6 mph78%29.92 "Hg4 mi
Weather by CustomWeather, © 2014

See weather overviewHow to use our weather pages